Weather History for Palacios, TX

Change the Weather History Date:

Saturday, December 8, 2012

  Actual Average Record
Temperature  
Mean Temperature 72 °F -  
Max Temperature 81 °F 67 °F 81 °F (2012)
Min Temperature 62 °F 48 °F 28 °F (2011)
Cooling Degree Days 6    
Growing Degree Days 22 (Base 50)    
Moisture  
Dew Point 65 °F    
Average Humidity 89    
Maximum Humidity 100    
Minimum Humidity 65    
Precipitation  
Precipitation 0.00 in - - ()
Sea Level Pressure  
Sea Level Pressure 29.86 in    
Wind  
Wind Speed 4 mph (SE)    
Max Wind Speed 21 mph    
Max Gust Speed 25 mph    
Visibility 5 miles    
Events Fog    
Averages and records for this station are not official NWS values.
T = Trace of Precipitation, MM = Missing Value Source: NWS Daily Summary

Daily Weather History Graph

Daily Weather History Graph

Search for Another Location

Airport:

Trip Planner

Search our weather history database for the weather conditions in past years. The results will help you decide how hot, cold, wet, or windy it might be!

Date:

Astronomy

Dec. 08, 2012 Rise Set
Actual Time 7:06 AM CST 5:28 PM CST
Civil Twilight 6:40 AM CST 5:54 PM CST
Nautical Twilight 6:10 AM CST 6:23 PM CST
Astronomical Twilight 5:42 AM CST 6:52 PM CST
Moon 1:52 AM CST (12/8) 1:41 PM CST (12/8)
Length of Visible Light 11h 13m
Length of Day
10h 22m
Waning Crescent, 28% of the Moon is Illuminated
Dec 8
Waning Crescent
Dec 13
New
Dec 19
First Quarter
Dec 28
Full
Jan 4
Last Quarter

Hourly Weather History & Observations

Time (CST) Temp. Heat Index Dew Point Humidity Pressure Visibility Wind Dir Wind Speed Gust Speed Precip Events Conditions
12:53 AM 70.0 °F - 66.9 °F 90% 29.84 in 9.0 mi SSE 3.5 mph - N/A   Clear
1:28 AM 69.8 °F - 66.2 °F 88% 29.84 in 1.5 mi Calm Calm - N/A   Partly Cloudy
1:37 AM 66.2 °F - 64.4 °F 94% 29.84 in 0.5 mi Calm Calm - N/A Fog Fog
1:47 AM 66.2 °F - 64.4 °F 94% 29.84 in 0.2 mi Calm Calm - N/A Fog Fog
1:53 AM 64.9 °F - 63.0 °F 93% 29.84 in 0.2 mi Calm Calm - N/A Fog Fog
2:53 AM 63.0 °F - 62.1 °F 97% 29.84 in 0.5 mi ENE 3.5 mph - N/A Fog Fog
3:09 AM 64.4 °F - 62.6 °F 94% 29.84 in 0.8 mi Calm Calm - N/A   Mist
3:17 AM 62.6 °F - 62.6 °F 100% 29.84 in 1.5 mi Calm Calm - N/A   Overcast
3:35 AM 64.4 °F - 62.6 °F 94% 29.84 in 0.5 mi East 4.6 mph - N/A Fog Fog
3:45 AM 64.4 °F - 62.6 °F 94% 29.84 in 2.0 mi East 3.5 mph - N/A   Mostly Cloudy
3:48 AM 64.4 °F - 62.6 °F 94% 29.84 in 5.0 mi East 3.5 mph - N/A   Scattered Clouds
3:53 AM 64.0 °F - 62.1 °F 93% 29.84 in 8.0 mi East 3.5 mph - N/A   Scattered Clouds
3:59 AM 64.4 °F - 62.6 °F 94% 29.84 in 2.5 mi East 3.5 mph - N/A   Mostly Cloudy
4:06 AM 64.4 °F - 62.6 °F 94% 29.84 in 2.5 mi East 3.5 mph - N/A   Partly Cloudy
4:14 AM 64.4 °F - 62.6 °F 94% 29.84 in 5.0 mi East 3.5 mph - N/A   Partly Cloudy
4:25 AM 62.6 °F - 60.8 °F 94% 29.84 in 2.5 mi ESE 4.6 mph - N/A   Scattered Clouds
4:31 AM 62.6 °F - 60.8 °F 94% 29.84 in 1.5 mi ESE 4.6 mph - N/A   Mostly Cloudy
4:41 AM 62.6 °F - 60.8 °F 94% 29.84 in 0.5 mi ESE 4.6 mph - N/A Fog Fog
5:13 AM 62.6 °F - 62.6 °F 100% 29.85 in 0.5 mi ESE 4.6 mph - N/A Fog Fog
5:53 AM 64.0 °F - 62.1 °F 93% 29.86 in 1.0 mi SE 3.5 mph - N/A   Mist
6:12 AM 64.4 °F - 62.6 °F 94% 29.86 in 1.0 mi ESE 4.6 mph - N/A   Scattered Clouds
6:16 AM 64.4 °F - 62.6 °F 94% 29.86 in 0.8 mi ESE 4.6 mph - N/A   Mostly Cloudy
6:24 AM 64.4 °F - 62.6 °F 94% 29.87 in 1.0 mi ESE 4.6 mph - N/A   Mist
6:28 AM 64.4 °F - 62.6 °F 94% 29.87 in 2.0 mi ESE 3.5 mph - N/A   Partly Cloudy
6:36 AM 64.4 °F - 62.6 °F 94% 29.87 in 3.0 mi ESE 4.6 mph - N/A   Partly Cloudy
6:40 AM 64.4 °F - 62.6 °F 94% 29.88 in 1.8 mi ESE 4.6 mph - N/A   Partly Cloudy
6:53 AM 64.9 °F - 63.0 °F 93% 29.88 in 2.5 mi ESE 4.6 mph - N/A   Partly Cloudy
7:03 AM 64.4 °F - 62.6 °F 94% 29.88 in 1.2 mi ESE 5.8 mph - N/A   Partly Cloudy
7:53 AM 68.0 °F - 66.0 °F 93% 29.90 in 8.0 mi Calm Calm - N/A   Clear
8:53 AM 73.9 °F - 69.1 °F 85% 29.91 in 9.0 mi South 4.6 mph - N/A   Clear
9:53 AM 78.1 °F - 69.1 °F 74% 29.91 in 10.0 mi South 11.5 mph - N/A   Clear
10:53 AM 80.1 °F 82.7 °F 68.0 °F 67% 29.91 in 10.0 mi South 15.0 mph - N/A   Clear
11:53 AM 80.1 °F 82.7 °F 68.0 °F 67% 29.89 in 10.0 mi South 15.0 mph - N/A   Clear
12:53 PM 80.1 °F 82.7 °F 68.0 °F 67% 29.87 in 10.0 mi South 20.7 mph 25.3 mph N/A   Clear
1:53 PM 81.0 °F 83.8 °F 68.0 °F 65% 29.84 in 10.0 mi South 16.1 mph 24.2 mph N/A   Clear
3:53 PM 79.0 °F - 69.1 °F 72% 29.83 in 10.0 mi South 13.8 mph - N/A   Clear
4:53 PM 77.0 °F - 69.1 °F 76% 29.84 in 10.0 mi SSE 11.5 mph - N/A   Clear
5:53 PM 75.0 °F - 69.1 °F 82% 29.84 in 10.0 mi SSE 9.2 mph - N/A   Clear
6:53 PM 73.9 °F - 69.1 °F 85% 29.86 in 10.0 mi SSE 9.2 mph - N/A   Clear
7:53 PM 73.4 °F - 69.8 °F 88% 29.86 in 10.0 mi SSE 8.1 mph - N/A   Clear
8:53 PM 72.0 °F - 68.0 °F 87% 29.87 in 10.0 mi SSE 6.9 mph - N/A   Clear
9:53 PM 72.0 °F - 68.0 °F 87% 29.88 in 10.0 mi Variable 4.6 mph - N/A   Clear
10:53 PM 72.0 °F - 68.0 °F 87% 29.88 in 10.0 mi South 6.9 mph - N/A   Clear
11:53 PM 72.0 °F - 68.0 °F 87% 29.87 in 10.0 mi South 6.9 mph - N/A   Clear